FW1313 Weather Reports


Display with metric or nautical units.
time (UTC)temp
F
wind
direction
speed
MPH
gust
MPH
rain 1hr
in
rain 24hr
in
rain mn
in
humidity
%
barometer
mb
20260903183408 71 228 0.0 0.0 0.00 0.00 0.00 27 1014.8
20260903180408 69 122 0.0 0.0 0.00 0.00 0.00 22 1014.6
20260903173408 67 162 0.0 0.0 0.00 0.00 0.00 24 1014.6
20260903170408 64 141 0.0 0.0 0.00 0.00 0.00 23 1014.4
20260903163408 61 129 0.0 0.0 0.00 0.00 0.00 24 1014.1
20260903160408 59 109 0.0 0.0 0.00 0.00 0.00 22 1014.0
20260903153408 58 123 0.0 0.0 0.00 0.00 0.00 22 1013.9
20260903150408 58 169 0.0 0.0 0.00 0.00 0.00 25 1013.8
20260903143408 57 93 0.0 0.0 0.00 0.00 0.00 21 1013.6
20260903140408 57 105 0.0 0.0 0.00 0.00 0.00 19 1013.3
20260903133408 57 115 0.0 4.0 0.00 0.00 0.00 17 1013.1
20260903130408 57 136 0.0 0.0 0.00 0.00 0.00 14 1013.3
20260903123408 57 100 0.0 0.0 0.00 0.00 0.00 14 1013.5
20260903120408 57 91 0.0 0.0 0.00 0.00 0.00 15 1013.7
20260903113408 57 82 0.0 0.0 0.00 0.00 0.00 16 1014.0
20260903110411 56 89 0.0 0.0 0.00 0.00 0.00 18 1014.4
20260903103411 56 97 0.0 0.0 0.00 0.00 0.00 24 1014.8
20260903100408 55 91 0.0 0.0 0.00 0.00 0.00 30 1014.9
20260903093408 55 99 0.0 0.0 0.00 0.00 0.00 29 1015.2
20260903090410 55 91 0.0 0.0 0.00 0.00 0.00 48 1015.7
20260903083410 55 91 0.0 0.0 0.00 0.00 0.00 43 1016.0
20260903080408 54 76 0.0 0.0 0.00 0.00 0.00 61 1016.5
20260903073408 55 105 0.0 0.0 0.00 0.00 0.00 65 1016.9
20260903070408 55 134 0.0 0.0 0.00 0.00 0.00 62 1017.2
20260903063408 55 104 0.0 0.0 0.00 0.00 0.00 53 1017.6
20260903060408 56 94 0.0 0.0 0.00 0.00 0.00 50 1017.9
20260903053408 54 102 0.0 0.0 0.00 0.00 0.00 64 1018.1
20260903050411 53 97 0.0 0.0 0.00 0.00 0.00 55 1018.2
20260903043414 55 136 0.0 0.0 0.00 0.00 0.00 59 1018.2
20260903040417 56 108 0.0 0.0 0.00 0.00 0.00 56 1018.2
20260903033408 57 130 0.0 0.0 0.00 0.00 0.00 56 1018.0
20260903030417 55 93 0.0 0.0 0.00 0.00 0.00 61 1018.0
20260903023408 57 159 0.0 0.0 0.00 0.00 0.00 56 1018.2
20260903020408 59 159 0.0 0.0 0.00 0.00 0.00 50 1018.4
20260903013408 61 164 0.0 0.0 0.00 0.00 0.00 41 1018.2
20260903010408 63 117 0.0 0.0 0.00 0.00 0.00 36 1017.9
20260903003408 64 166 0.0 1.0 0.00 0.00 0.00 34 1017.8
20260903000414 66 170 0.0 0.0 0.00 0.00 0.00 32 1017.8
20260902233408 67 180 0.0 0.0 0.00 0.00 0.00 27 1017.7
20260902230408 67 203 0.0 0.0 0.00 0.00 0.00 26 1017.8
20260902223411 68 212 0.0 1.0 0.00 0.00 0.00 24 1017.9
20260902220411 68 174 0.0 0.0 0.00 0.00 0.00 23 1017.8
20260902213408 67 177 0.0 1.0 0.00 0.00 0.00 20 1017.6
20260902210408 69 201 0.0 1.0 0.00 0.00 0.00 23 1017.4
20260902203408 71 225 0.0 0.0 0.00 0.00 0.00 23 1017.0
20260902200408 71 186 0.0 0.0 0.00 0.00 0.00 23 1017.1
20260902193408 71 174 0.0 0.0 0.00 0.00 0.00 24 1016.6
20260902190408 71 150 0.0 0.0 0.00 0.00 0.00 22 1016.6